TimeEST,TemperatureF,Dew PointF,Humidity,Sea Level PressureIn,VisibilityMPH,Wind Direction,Wind SpeedMPH,Gust SpeedMPH,PrecipitationIn,Events,Conditions,WindDirDegrees,DateUTC
12:15 AM,20.8,18.3,90,30.39,10.0,Calm,Calm,-,N/A,,Clear,0,2012-11-29 05:15:00
12:35 AM,21.7,19.2,90,30.39,10.0,Calm,Calm,-,N/A,,Clear,0,2012-11-29 05:35:00
1:15 AM,21.2,18.3,89,30.39,10.0,Calm,Calm,-,N/A,,Clear,0,2012-11-29 06:15:00
1:35 AM,19.9,17.4,90,30.39,10.0,Calm,Calm,-,N/A,,Clear,0,2012-11-29 06:35:00
2:15 AM,19.8,17.4,91,30.40,10.0,Calm,Calm,-,N/A,,Clear,0,2012-11-29 07:15:00
2:35 AM,19.8,17.4,91,30.40,10.0,Calm,Calm,-,N/A,,Clear,0,2012-11-29 07:35:00
3:15 AM,19.2,16.5,89,30.40,10.0,Calm,Calm,-,N/A,,Clear,0,2012-11-29 08:15:00
3:35 AM,19.0,16.7,91,30.40,10.0,Calm,Calm,-,N/A,,Clear,0,2012-11-29 08:35:00
3:55 AM,18.7,16.2,90,30.40,10.0,Calm,Calm,-,N/A,,Clear,0,2012-11-29 08:55:00
4:15 AM,18.7,16.5,91,30.40,10.0,Calm,Calm,-,N/A,,Clear,0,2012-11-29 09:15:00
4:35 AM,18.5,16.0,90,30.40,10.0,Calm,Calm,-,N/A,,Clear,0,2012-11-29 09:35:00
4:55 AM,18.5,15.8,89,30.40,10.0,Calm,Calm,-,N/A,,Clear,0,2012-11-29 09:55:00
5:15 AM,18.1,15.6,90,30.40,10.0,Calm,Calm,-,N/A,,Clear,0,2012-11-29 10:15:00
5:35 AM,18.5,15.8,89,30.39,10.0,Calm,Calm,-,N/A,,Clear,0,2012-11-29 10:35:00
5:55 AM,18.5,16.0,90,30.40,10.0,Calm,Calm,-,N/A,,Clear,0,2012-11-29 10:55:00
6:15 AM,18.5,16.0,90,30.40,10.0,Calm,Calm,-,N/A,,Clear,0,2012-11-29 11:15:00
6:35 AM,18.5,16.0,90,30.41,10.0,Calm,Calm,-,N/A,,Clear,0,2012-11-29 11:35:00
7:15 AM,19.2,16.7,90,30.41,10.0,Calm,Calm,-,N/A,,Clear,0,2012-11-29 12:15:00
7:35 AM,19.4,16.7,89,30.42,10.0,Calm,Calm,-,N/A,,Clear,0,2012-11-29 12:35:00
7:55 AM,18.9,16.3,90,30.42,10.0,Calm,Calm,-,N/A,,Clear,0,2012-11-29 12:55:00
8:15 AM,18.9,16.3,90,30.43,10.0,West,4.6,-,N/A,,Clear,270,2012-11-29 13:15:00
8:35 AM,19.9,17.4,90,30.42,10.0,Calm,Calm,-,N/A,,Clear,0,2012-11-29 13:35:00
8:55 AM,21.4,19.0,91,30.42,10.0,Calm,Calm,-,N/A,,Clear,0,2012-11-29 13:55:00
9:15 AM,24.1,21.4,89,30.42,10.0,Calm,Calm,-,N/A,,Clear,0,2012-11-29 14:15:00
9:35 AM,28.0,25.0,88,30.41,7.0,Calm,Calm,-,N/A,,Clear,0,2012-11-29 14:35:00
9:55 AM,32.2,25.7,77,30.42,10.0,South,5.8,-,N/A,,Clear,190,2012-11-29 14:55:00
10:15 AM,33.4,26.2,75,30.42,10.0,Calm,Calm,-,N/A,,Clear,0,2012-11-29 15:15:00
10:35 AM,36.0,26.2,68,30.42,10.0,Calm,Calm,-,N/A,,Clear,0,2012-11-29 15:35:00
10:55 AM,37.8,26.2,63,30.42,10.0,SSE,3.5,-,N/A,,Clear,150,2012-11-29 15:55:00
11:15 AM,39.6,26.1,58,30.41,10.0,South,3.5,-,N/A,,Clear,170,2012-11-29 16:15:00
11:55 AM,42.1,25.2,51,30.39,10.0,SSE,6.9,-,N/A,,Clear,160,2012-11-29 16:55:00
12:15 PM,43.2,25.5,50,30.37,10.0,SSW,8.1,-,N/A,,Clear,200,2012-11-29 17:15:00
12:35 PM,43.9,24.3,46,30.37,10.0,SSE,10.4,-,N/A,,Clear,160,2012-11-29 17:35:00
12:55 PM,43.9,23.9,45,30.36,10.0,SSE,6.9,-,N/A,,Clear,150,2012-11-29 17:55:00
1:15 PM,45.0,25.2,46,30.35,10.0,SSW,6.9,-,N/A,,Clear,200,2012-11-29 18:15:00
1:35 PM,45.5,24.3,43,30.34,10.0,SSW,6.9,-,N/A,,Clear,210,2012-11-29 18:35:00
1:55 PM,46.6,23.9,41,30.33,10.0,SW,9.2,-,N/A,,Clear,230,2012-11-29 18:55:00
2:15 PM,46.2,23.0,40,30.33,10.0,SSW,8.1,-,N/A,,Clear,200,2012-11-29 19:15:00
2:35 PM,46.2,22.1,39,30.32,10.0,South,3.5,-,N/A,,Clear,190,2012-11-29 19:35:00
2:55 PM,46.4,23.2,40,30.31,10.0,SSW,5.8,-,N/A,,Clear,200,2012-11-29 19:55:00
3:15 PM,47.1,23.7,40,30.30,10.0,SSE,5.8,-,N/A,,Clear,160,2012-11-29 20:15:00
3:35 PM,47.3,23.5,39,30.29,10.0,SSE,8.1,-,N/A,,Clear,160,2012-11-29 20:35:00
4:15 PM,46.9,21.7,37,30.28,10.0,South,4.6,-,N/A,,Clear,170,2012-11-29 21:15:00
4:35 PM,46.4,22.1,38,30.27,10.0,Calm,Calm,-,N/A,,Clear,0,2012-11-29 21:35:00
4:55 PM,45.0,22.1,40,30.28,10.0,South,3.5,-,N/A,,Clear,170,2012-11-29 21:55:00
5:15 PM,41.2,22.5,47,30.28,10.0,Calm,Calm,-,N/A,,Clear,0,2012-11-29 22:15:00
5:35 PM,38.8,22.6,52,30.27,10.0,Calm,Calm,-,N/A,,Clear,0,2012-11-29 22:35:00
5:55 PM,37.4,22.5,55,30.28,10.0,Calm,Calm,-,N/A,,Clear,0,2012-11-29 22:55:00
6:15 PM,35.2,22.5,60,30.28,10.0,Calm,Calm,-,N/A,,Clear,0,2012-11-29 23:15:00
6:35 PM,33.3,23.7,68,30.29,10.0,Calm,Calm,-,N/A,,Clear,0,2012-11-29 23:35:00
7:15 PM,32.0,23.0,69,30.29,10.0,Calm,Calm,-,N/A,,Clear,0,2012-11-30 00:15:00
7:35 PM,31.1,22.6,71,30.29,10.0,Calm,Calm,-,N/A,,Clear,0,2012-11-30 00:35:00
8:15 PM,29.3,23.5,79,30.29,10.0,Calm,Calm,-,N/A,,Clear,0,2012-11-30 01:15:00
8:35 PM,29.3,23.5,79,30.29,10.0,Calm,Calm,-,N/A,,Clear,0,2012-11-30 01:35:00
8:55 PM,28.8,23.2,80,30.28,10.0,Calm,Calm,-,N/A,,Clear,0,2012-11-30 01:55:00
9:15 PM,28.4,22.8,80,30.27,10.0,Calm,Calm,-,N/A,,Clear,0,2012-11-30 02:15:00
9:35 PM,28.0,22.8,81,30.27,10.0,Calm,Calm,-,N/A,,Clear,0,2012-11-30 02:35:00
10:15 PM,27.5,22.6,82,30.27,10.0,Calm,Calm,-,N/A,,Clear,0,2012-11-30 03:15:00
10:35 PM,27.3,22.6,83,30.27,10.0,Calm,Calm,-,N/A,,Clear,0,2012-11-30 03:35:00
10:55 PM,26.6,22.8,86,30.27,10.0,Calm,Calm,-,N/A,,Clear,0,2012-11-30 03:55:00
11:15 PM,26.8,23.0,86,30.27,10.0,Calm,Calm,-,N/A,,Clear,0,2012-11-30 04:15:00
11:35 PM,26.8,22.8,85,30.27,10.0,Calm,Calm,-,N/A,,Clear,0,2012-11-30 04:35:00
11:55 PM,26.6,22.8,86,30.29,10.0,Calm,Calm,-,N/A,,Clear,0,2012-11-30 04:55:00